Terug naar catalogus

STARLINK-3362

ActiefCommunicatieVLEO
NORAD 51108·PAYLOAD·🇺🇸 United States

Gelanceerd Jan 19, 2022 vanaf Cape Canaveral Space Force Station

Loading…

Volgende Passages (komende 24 uur)

TLE

VersSource: CelesTrak SupGP

Epoch: Sep 14, 2026, 21:51 UTC

1 51108C 22005E   26257.91090278 -.00022142  00000+0 -63362-3 0  2574
2 51108  53.1575 151.8337 0001238  90.4266 120.2855 15.35404136    18

Volg STARLINK-3362 in realtime met AllMySat

Download on the App Store